User: anonymous   Login
Location: Unspecified
(0.0000°N, 0.0000°E)
Time: 10:46:56
(UTC+00:00)
Language:

METEOR-M - Orbit

View from above orbital plane
View from above orbital plane
View from above satellite
View from above satellite

Ground track
Ground track

The orbit data is extracted from the following two-line orbital elements,

1 35865U 09049A   17016.06297776 -.00000014  00000-0  12600-4 0  9997
2 35865  98.4356  44.4404 0001699 206.8969 153.2122 14.22094158380484
Epoch (UTC): 16 January 2017 01:30:41
Eccentricity: 0.0001699
inclination: 98.4356°
perigee height: 817 km
apogee height: 819 km
right ascension of ascending node: 44.4404°
argument of perigee: 206.8969°
revolutions per day: 14.22094158
mean anomaly at epoch: 153.2122°
orbit number at epoch: 38048

The dashed part of the orbit path shows where the satellite is in the earth's shadow,  

DLR